Weather History for Northeast Philadelphia, PA

Change the Weather History Date:

Thursday, June 24, 2010

  Actual Average Record
Temperature  
Mean Temperature 86 °F -  
Max Temperature 97 °F 82 °F 97 °F (2010)
Min Temperature 77 °F 63 °F 59 °F (1999)
Cooling Degree Days 22    
Growing Degree Days 36 (Base 50)    
Moisture  
Dew Point 68 °F    
Average Humidity 60    
Maximum Humidity 84    
Minimum Humidity 37    
Precipitation  
Precipitation 0.02 in - - ()
Sea Level Pressure  
Sea Level Pressure 29.84 in    
Wind  
Wind Speed 8 mph (WSW)    
Max Wind Speed 22 mph    
Max Gust Speed 33 mph    
Visibility 10 miles    
Events Rain    
Averages and records for this station are not official NWS values.
T = Trace of Precipitation, MM = Missing Value Source: NWS Daily Summary

Daily Weather History Graph

Daily Weather History Graph

Search for Another Location

Airport:

Trip Planner

Search our weather history database for the weather conditions in past years. The results will help you decide how hot, cold, wet, or windy it might be!

Date:

Astronomy

Jun. 24, 2010 Rise Set
Actual Time 5:31 AM EDT 8:33 PM EDT
Civil Twilight 4:58 AM EDT 9:06 PM EDT
Nautical Twilight 4:17 AM EDT 9:47 PM EDT
Astronomical Twilight 3:28 AM EDT 10:36 PM EDT
Moon 7:18 PM EDT (6/24) 3:39 AM EDT (6/24)
Length of Visible Light 16h 07m
Length of Day
15h 01m
Waxing Gibbous, 97% of the Moon is Illuminated
Jun 24
Waxing Gibbous
Jun 26
Full
Jul 4
Last Quarter
Jul 11
New
Jul 18
First Quarter

Hourly Weather History & Observations

Time (EDT) Temp. Heat Index Dew Point Humidity Pressure Visibility Wind Dir Wind Speed Gust Speed Precip Events Conditions
12:54 AM 78.1 °F - 66.0 °F 66% 29.89 in 10.0 mi Calm Calm - N/A   Clear
1:54 AM 82.9 °F 85.4 °F 66.9 °F 58% 29.89 in 10.0 mi SW 5.8 mph - N/A   Clear
2:54 AM 82.9 °F 85.4 °F 66.9 °F 58% 29.89 in 10.0 mi WSW 8.1 mph - N/A   Clear
3:54 AM 82.0 °F 84.1 °F 66.0 °F 58% 29.88 in 10.0 mi WSW 4.6 mph - N/A   Clear
4:54 AM 81.0 °F 83.0 °F 66.0 °F 60% 29.86 in 10.0 mi WSW 5.8 mph - N/A   Clear
5:54 AM 81.0 °F 83.0 °F 66.0 °F 60% 29.86 in 10.0 mi WSW 5.8 mph - N/A   Clear
6:54 AM 81.0 °F 83.3 °F 66.9 °F 62% 29.86 in 10.0 mi SW 6.9 mph - N/A   Clear
7:54 AM 84.9 °F 87.6 °F 66.9 °F 55% 29.83 in 10.0 mi WSW 10.4 mph - N/A   Clear
8:54 AM 87.1 °F 92.0 °F 70.0 °F 57% 29.82 in 10.0 mi WSW 15.0 mph - N/A   Clear
9:54 AM 90.0 °F 95.4 °F 70.0 °F 52% 29.81 in 10.0 mi West 21.9 mph 31.1 mph N/A   Clear
10:54 AM 93.0 °F 100.1 °F 71.1 °F 49% 29.81 in 10.0 mi West 13.8 mph 24.2 mph N/A   Clear
11:54 AM 93.0 °F 96.4 °F 66.9 °F 42% 29.81 in 10.0 mi WNW 13.8 mph 26.5 mph N/A   Clear
12:54 PM 93.9 °F 97.0 °F 66.0 °F 40% 29.81 in 10.0 mi West 12.7 mph 25.3 mph N/A   Clear
1:54 PM 96.1 °F 99.3 °F 66.0 °F 37% 29.78 in 10.0 mi West 18.4 mph 24.2 mph N/A   Clear
2:54 PM 96.1 °F 99.9 °F 66.9 °F 38% 29.77 in 10.0 mi West 15.0 mph 21.9 mph N/A   Partly Cloudy
3:54 PM 78.1 °F - 70.0 °F 76% 29.81 in 7.0 mi WSW 19.6 mph 33.4 mph 0.00 in Rain Rain
4:54 PM 77.0 °F - - N/A% 29.81 in 10.0 mi WSW 8.1 mph - 0.02 in   Scattered Clouds
5:54 PM 80.1 °F - - N/A% 29.79 in 10.0 mi West 9.2 mph - N/A   Partly Cloudy
6:54 PM 82.9 °F 88.0 °F 72.0 °F 69% 29.79 in 10.0 mi WSW 5.8 mph - N/A   Clear
7:54 PM 82.0 °F 86.7 °F 72.0 °F 71% 29.81 in 10.0 mi WSW 10.4 mph - N/A   Clear
8:54 PM 81.0 °F 85.2 °F 72.0 °F 74% 29.83 in 10.0 mi WSW 6.9 mph - N/A   Clear
9:54 PM 79.0 °F - 72.0 °F 79% 29.86 in 10.0 mi WSW 4.6 mph - N/A   Clear
10:54 PM 78.1 °F - 73.0 °F 84% 29.88 in 10.0 mi Calm Calm - N/A   Clear
11:54 PM 78.1 °F - 66.9 °F 68% 29.90 in 10.0 mi West 5.8 mph - N/A   Clear